User: anonymous   Login
Location: Montr�al
(45.5000°N, 73.5830°W)
Time: 06:34:26
(UTC-04:00)
Language:

Cosmos 2369 - Orbit

View from above orbital plane
View from above orbital plane
View from above satellite
View from above satellite

Ground track
Ground track

The orbit data is extracted from the following two-line orbital elements,

1 26069U 00006A   15243.55509200 -.00000126  00000-0 -42091-4 0  9991
2 26069 070.9932 292.4919 0010384 156.1569 204.0036 14.13295956803483
Epoch (UTC): 31 August 2015 13:19:19
Eccentricity: 0.0010384
inclination: 70.9932°
perigee height: 840 km
apogee height: 855 km
right ascension of ascending node: 292.4919°
argument of perigee: 156.1569°
revolutions per day: 14.13295956
mean anomaly at epoch: 204.0036°
orbit number at epoch: 80348

The dashed part of the orbit path shows where the satellite is in the earth's shadow,  

DLR